Terminal Aerodrome Forecast
Issued by NWS

Home | Current Version | Previous Version | Text Only | Print | Product List | Glossary On
Versions: 1 2 3 4 5 6 7 8 9 10 11 12 13 14 15 16 17 18 19
000
FTUS41 KBTV 231100
TAFSLK
TAF
KSLK 231129Z 2312/2412 05003KT P6SM SCT025 OVC050
     FM231500 06006KT P6SM BKN035
     FM240000 00000KT P6SM SCT035
     FM240600 00000KT 1/2SM FG VV002=

USA.gov is the U.S. government's official web portal to all federal, state and local government web resources and services.